TimeCST,TemperatureF,Dew PointF,Humidity,Sea Level PressureIn,VisibilityMPH,Wind Direction,Wind SpeedMPH,Gust SpeedMPH,PrecipitationIn,Events,Conditions,WindDirDegrees,DateUTC
12:53 AM,43.0,34.0,71,30.39,10.0,SSE,5.8,-,N/A,,Clear,150,2012-11-17 06:53:00
1:53 AM,43.0,33.1,68,30.38,10.0,SE,6.9,-,N/A,,Clear,140,2012-11-17 07:53:00
2:53 AM,44.1,32.0,63,30.38,10.0,South,4.6,-,N/A,,Clear,170,2012-11-17 08:53:00
3:53 AM,42.1,33.1,70,30.38,10.0,SSE,6.9,-,N/A,,Clear,160,2012-11-17 09:53:00
4:53 AM,41.0,33.1,73,30.39,10.0,SSE,6.9,-,N/A,,Clear,160,2012-11-17 10:53:00
5:53 AM,39.0,32.0,76,30.39,10.0,SSE,6.9,-,N/A,,Clear,150,2012-11-17 11:53:00
6:53 AM,39.9,30.9,70,30.40,10.0,SSE,8.1,-,N/A,,Clear,160,2012-11-17 12:53:00
7:53 AM,41.0,30.9,67,30.41,10.0,SSE,8.1,-,N/A,,Clear,160,2012-11-17 13:53:00
8:53 AM,43.0,30.9,62,30.42,10.0,South,9.2,16.1,N/A,,Clear,170,2012-11-17 14:53:00
9:53 AM,48.9,33.1,54,30.42,10.0,South,6.9,-,N/A,,Clear,170,2012-11-17 15:53:00
10:53 AM,54.0,34.0,47,30.41,10.0,South,10.4,-,N/A,,Clear,180,2012-11-17 16:53:00
11:53 AM,57.0,30.9,37,30.38,10.0,South,10.4,20.7,N/A,,Clear,180,2012-11-17 17:53:00
1:53 PM,59.0,30.9,35,30.34,10.0,South,10.4,-,N/A,,Clear,180,2012-11-17 19:53:00
2:53 PM,59.0,30.0,33,30.32,10.0,South,12.7,17.3,N/A,,Clear,180,2012-11-17 20:53:00
3:53 PM,57.9,30.0,35,30.31,10.0,SSE,8.1,-,N/A,,Clear,150,2012-11-17 21:53:00
4:53 PM,55.0,28.0,35,30.31,10.0,SSE,6.9,-,N/A,,Clear,160,2012-11-17 22:53:00
5:53 PM,52.0,28.9,41,30.30,10.0,SE,4.6,-,N/A,,Clear,140,2012-11-17 23:53:00
6:53 PM,51.1,30.0,44,30.31,10.0,ESE,4.6,-,N/A,,Clear,120,2012-11-18 00:53:00
7:53 PM,50.0,30.9,48,30.31,10.0,SSE,4.6,-,N/A,,Clear,150,2012-11-18 01:53:00
8:53 PM,48.9,30.9,50,30.31,10.0,SSE,4.6,-,N/A,,Clear,150,2012-11-18 02:53:00
9:53 PM,48.0,30.9,52,30.31,10.0,South,6.9,-,N/A,,Clear,170,2012-11-18 03:53:00
10:53 PM,46.9,30.0,52,30.30,10.0,SSE,8.1,-,N/A,,Clear,160,2012-11-18 04:53:00
11:53 PM,46.9,28.9,50,30.30,10.0,South,10.4,-,N/A,,Clear,170,2012-11-18 05:53:00